User: anonymous   Login
Location: Unspecified
(0.0000°N, 0.0000°E)
Time: 09:24:06
(UTC+00:00)
Language:

Nadezhda 4 - Orbit

View from above orbital plane
View from above orbital plane
View from above satellite
View from above satellite

Ground track
Ground track

The orbit data is extracted from the following two-line orbital elements,

1 23179U 94041A   17328.18995531  .00000022  00000-0  64676-5 0  9990
2 23179  82.9469 188.5689 0034727 195.8328 285.2064 13.76540006173703
Epoch (UTC): 24 November 2017 04:33:32
Eccentricity: 0.0034727
inclination: 82.9469°
perigee height: 950 km
apogee height: 1002 km
right ascension of ascending node: 188.5689°
argument of perigee: 195.8328°
revolutions per day: 13.76540006
mean anomaly at epoch: 285.2064°
orbit number at epoch: 17370

The dashed part of the orbit path shows where the satellite is in the earth's shadow,  

DLR